Regional Weather Roundup
Issued by NWS Cleveland, OH

Home | Current Version | Previous Version | Graphics & Text | Print | Product List | Glossary On
Versions: 1 2 3 4 5 6 7 8 9 10 11 12 13 14 15 16 17 18 19 20 21 22 23 24 25 26 27 28 29 30 31 32 33 34 35 36 37 38 39 40 41 42 43 44 45 46 47 48 49 50
000
ASUS41 KCLE 102210
RWRCLE
OHIO REGIONAL WEATHER ROUNDUP
NATIONAL WEATHER SERVICE WILMINGTON, OH
500 PM EST SAT DEC 10 2016

NOTE: "FAIR" INDICATES FEW OR NO CLOUDS BELOW 12,000 FEET WITH NO
SIGNIFICANT WEATHER AND/OR OBSTRUCTIONS TO VISIBILITY.

OHZ001>008-015>018-024>027-034-035-043-044-102300-
   NORTHWEST OHIO

CITY           SKY/WX    TMP DP  RH WIND       PRES   REMARKS
DEFIANCE       CLOUDY    27  14  58 SW8       30.45F WCI  19
FINDLAY        CLOUDY    27  14  58 W10       30.44F WCI  17
TOLEDO EXPRESS CLOUDY    26  17  68 SW13      30.43S WCI  15
TOLEDO EXEC    CLOUDY    27  17  66 SW12      30.45S WCI  17
LIMA           CLOUDY    25  15  66 SW8       30.44F WCI  16
$$

OHZ009>014-019>023-028>033-038-089-102300-
   NORTHEAST OHIO

CITY           SKY/WX    TMP DP  RH WIND       PRES   REMARKS
CLE-HOPKINS    CLOUDY    27  13  55 SW9       30.47S WCI  18
CLE-LAKEFRONT  CLOUDY    26  15  63 S13       30.45S WCI  15
CUY CO. ARPT   CLOUDY    27  16  63 SW14      30.44S WCI  15
LORAIN-ELYRIA  CLOUDY    25  13  60 W13       30.46R WCI  14
ASHTABULA      CLOUDY    24  17  74 W8        30.42R WCI  15
AKRON-CANTON   CLOUDY    25  13  60 W7        30.44R WCI  17
WOOSTER        CLOUDY    24  13  62 W9        30.45S WCI  14
MANSFIELD      CLOUDY    23  14  68 SW9       30.43S WCI  13
YOUNGSTOWN     FLURRIES  25  14  63 SW9       30.42R WCI  15
$$

OHZ042-051>053-060>062-070>072-077>081-102300-
  SOUTHWEST OHIO

CITY           SKY/WX    TMP DP  RH WIND       PRES   REMARKS
CINC-COVINGTON MOCLDY    27  17  66 S5        30.46S WCI  22
CINC-LUNKEN    MOCLDY    27  18  69 S6        30.51S WCI  20
HAMILTON       FAIR      29  17  61 CALM      30.49F
DAYTON         MOCLDY    26  15  63 SW7       30.46F WCI  18
WRIGHT-PAT AFB MOCLDY    27  16  63 SW8       30.47S WCI  18
DAYTON GENERAL CLOUDY    27  15  61 W3        30.46S
WILMINGTON     CLOUDY    26  15  63 W7        30.46S WCI  18
$$

OHZ036-037-039>041-045>050-054>059-063>069-073>076-082>088-102300-
  CENTRAL AND SOUTHEAST OHIO

CITY           SKY/WX    TMP DP  RH WIND       PRES   REMARKS
COLUMBUS       CLOUDY    26  16  65 SW6       30.48S WCI  19
OSU AIRPORT    CLOUDY    26  15  63 SW8       30.47S WCI  18
BOLTON FIELD   CLOUDY    27  16  63 W6        30.48S WCI  20
RICKENBACK AFB   N/A     27  15  62 W3        30.48S
NEWARK         CLOUDY    26  16  65 W8        30.47S WCI  18
MARION         CLOUDY    25  15  66 W7        30.46S WCI  17
LANCASTER      CLOUDY    27  16  63 W3        30.48S
ZANESVILLE     CLOUDY    27  15  61 SW6       30.48S WCI  20
NEW PHILLY     CLOUDY    25  15  66 W7        30.48S WCI  17
$$



USA.gov is the U.S. government's official web portal to all federal, state and local government web resources and services.